Regional Weather Roundup
Issued by NWS

Home | Current Version | Previous Version | Text Only | Print | Product List | Glossary On
Versions: 1 2 3 4 5 6 7 8 9 10 11 12 13 14 15 16 17 18 19 20 21 22 23 24 25 26 27
000
ASUS43 KMPX 101610
RWRMN
WEATHER ROUNDUP FOR MINNESOTA
NATIONAL WEATHER SERVICE TWIN CITIES/CHANHASSEN MN
1100 AM CDT MON MAY 10 2021


NOTE: "FAIR" INDICATES FEW OR NO CLOUDS BELOW 12,000 FEET WITH NO
SIGNIFICANT WEATHER AND/OR OBSTRUCTIONS TO VISIBILITY. N/A MEANS
CURRENT SKY AND/OR WEATHER CONDITIONS ARE NOT AVAILABLE.

MNZ060>063-068>070-101700-
   Twin Cities Metro

CITY           SKY/WX    TMP DP  RH WIND       PRES   REMARKS
TWIN CITIES    MOSUNNY   48  24  39 N9G20     30.22S
ST PAUL        MOSUNNY   50  27  40 NE8       30.23S
CRYSTAL        MOSUNNY   51  25  36 NE13      30.21S
BLAINE         PTSUNNY   50  25  37 NE10      30.22S
LAKEVILLE      PTSUNNY   48  25  40 NE7       30.21S
EDEN PRAIRIE   MOSUNNY   50  29  44 NE12G17   30.21R
SOUTH ST PAUL  SUNNY     49  24  37 NE8       30.22R
$$
MNZ001>005-007-008-013>017-022>024-027-028-101700-
   Northwest Minnesota

CITY           SKY/WX    TMP DP  RH WIND       PRES   REMARKS
BEMIDJI        CLOUDY    44  21  41 NE3       30.28S
HALLOCK        MOSUNNY   48  19  32 E7        30.32S
ROSEAU           N/A     50 N/A N/A NE6       30.32S
WARROAD        SUNNY     45  28  53 NE9       30.34S
THIEF RVR FALL MOSUNNY   45  21  38 NE10      30.32S
CROOKSTON      SUNNY     46  18  31 NE6       30.31S
FOSSTON        CLOUDY    43  18  36 NE8       30.30R
DETROIT LAKES  CLOUDY    46  19  34 N8        30.27S
MOORHEAD       SUNNY     52  12  20 NE5       30.29S
PARK RAPIDS    CLOUDY    45  20  36 N8        30.26S
MAHNOMEN       CLOUDY    45  21  38 NE5       30.29S
$$
MNZ006-009>011-018-025>026-101700-
   North Central Minnesota

CITY           SKY/WX    TMP DP  RH WIND       PRES   REMARKS
BAUDETTE       CLOUDY    45  21  38 NE9       30.31F
FLAG ISLAND    PTSUNNY   43  19  39 N9        30.33S
INTL FALLS     CLOUDY    45  24  43 NE8G18    30.29F
WASKISH        CLOUDY    46  19  34 N8        30.30S
BIG FORK       PTSUNNY   48  21  34 N5        30.32S
LONGVILLE      CLOUDY    45  19  36 N7        30.26S
GRAND RAPIDS   CLOUDY    43  24  47 VRB3      30.28S
CRANE LAKE     CLOUDY    45  23  42 N9        30.31R
ORR            PTSUNNY   45  18  33 NW6       30.26S
COOK           MOSUNNY   45  19  36 N9        30.26S
WALKER         CLOUDY    42  26  52 CALM      30.27S
$$
MNZ012-019>021-037-101700-
   Northeast Minnesota

CITY           SKY/WX    TMP DP  RH WIND       PRES   REMARKS
DULUTH         CLOUDY    41  29  62 SE9       30.24S
ELY            PTSUNNY   45  19  36 NE7       30.25S
HIBBING        CLOUDY    44  19  36 N10       30.25S
EVELETH        PTSUNNY   45  21  38 N8        30.26S
DULUTH HARBOR  PTSUNNY   45  28  53 NE7       30.28S
TWO HARBORS    PTSUNNY   45  27  49 E7        30.24S
SILVER BAY     CLOUDY    43  25  49 SE7       30.24S
GRAND MARAIS     N/A     46  25  43 NE6       30.25S
G MARAIS ARPRT CLOUDY    37  21  52 N9        30.22S
$$
MNZ029>031-032-039>041-046>048-054>057-064-101700-
   West Central Minnesota

CITY           SKY/WX    TMP DP  RH WIND       PRES   REMARKS
FERGUS FALLS   PTSUNNY   46  25  42 NE3       30.24R
WHEATON        CLOUDY    48  21  34 NE6       30.29R
MORRIS         SUNNY     52  18  25 NE8       30.26S
ALEXANDRIA     CLOUDY    48  24  39 NE6G17    30.26R
ELBOW LAKE     CLOUDY    46  26  44 N5        30.27S
WADENA         CLOUDY    45  25  45 CALM      30.27R
GLENWOOD       MOSUNNY   48  25  40 NE14      30.25R
APPLETON       CLOUDY    52  27  37 E9        30.24S
BENSON         PTSUNNY   48  23  37 NE10      30.26R
ORTONVILLE     MOSUNNY   48  27  43 NE10G17   30.25S
MADISON        PTSUNNY   54  27  35 E6        30.25S
WILLMAR        FAIR      52  25  35 NE10G20   30.27R
$$
MNZ033>034-036-042>043-049>051-058-059-101700-
   Central Minnesota

CITY           SKY/WX    TMP DP  RH WIND       PRES   REMARKS
ST CLOUD       CLOUDY    47  21  35 NE9G17    30.24R
SAUK CENTRE    CLOUDY    46  23  40 NE9       30.25R
PAYNESVILLE    MOSUNNY   48  27  43 NE10G17   30.25R
AITKIN         MOSUNNY   46  25  42 N8        30.26R
PINE RIVER     CLOUDY    45  25  45 N3        30.29R
BRAINERD       CLOUDY    46  15  28 NE12G17   30.26R
STAPLES        CLOUDY    46  19  34 E8        30.26S
LONG PRAIRIE   CLOUDY    43  23  45 NE8       30.26R
LITTLE FALLS   CLOUDY    46  14  27 NE7       30.26R
LITCHFIELD     SUNNY     50  27  40 NE13G18   30.23S
BUFFALO        PTSUNNY   48  22  36 MISG      30.24S
MAPLE LAKE     PTSUNNY   50  25  38 N10G16    30.24S
HUTCHINSON     MOSUNNY   50  30  46 NE10G16   30.24R
$$
MNZ037-044-045-052-053-101700-
   East Central Minnesota

CITY           SKY/WX    TMP DP  RH WIND       PRES   REMARKS
PRINCETON      PTSUNNY   50  23  34 NE7       30.24S
MORA           MOSUNNY   45  27  49 E5        30.26R
CAMBRIDGE      PTSUNNY   48  28  46 NE5G17    30.24S
RUSH CITY      CLOUDY    46  24  41 N6        30.24S
MOOSE LAKE     PTSUNNY   46  27  46 CALM      30.24S
HINCKLEY       PTSUNNY   46  27  46 N9        30.25R
CLOQUET        PTSUNNY   43  23  45 CALM      30.24R
$$
MNZ071>073-080-081-089-090-097-098-101700-
   Southwest Minnesota

CITY           SKY/WX    TMP DP  RH WIND       PRES   REMARKS
MONTEVIDEO     MOSUNNY   50  25  37 E7        30.24S
GRANITE FALLS  PTSUNNY   51  31  46 NE5       30.25R
CANBY          MOSUNNY   52  28  40 NE12      30.24S
MARSHALL       SUNNY     51  26  37 E7G16     30.22S
REDWOOD FALLS  CLOUDY    50  28  42 NE10G22   30.22R
OLIVIA         SUNNY     50  27  40 NE12G21   30.23R
PIPESTONE      SUNNY     50  30  46 NE8G18    30.19R
WINDOM         SUNNY     50  27  40 NE5       30.18R
WORTHINGTON    SUNNY     51  29  42 N14G22    30.18R
JACKSON        SUNNY     50  28  43 N10       30.18R
TRACY          SUNNY     52  23  32 NE12G20   30.21R
SLAYTON        SUNNY     49  26  40 N14       30.20S
$$
MNZ065>067-074>077-082>085-091>093-101700-
   South Central Minnesota

CITY           SKY/WX    TMP DP  RH WIND       PRES   REMARKS
MANKATO        CLOUDY    47  29  49 E14       30.22R
NEW ULM        PTSUNNY   48  27  43 E9        30.21R
ST JAMES       SUNNY     52  27  37 NE10G17   30.19R
FAIRMONT       SUNNY     51  28  41 NE13G18   30.18R
GLENCOE        CLOUDY    48  28  45 NE8       30.22R
FARIBAULT      PTSUNNY   46  30  53 NE6       30.21S
OWATONNA       PTSUNNY   46  30  53 N13G23    30.20R
WASECA         PTSUNNY   50  30  46 NE15G21   30.20S
ALBERT LEA     MOSUNNY   52  32  46 NE12      30.17R
$$
MNZ078>079-086>088-094>096-101700-
   Southeast Minnesota

CITY           SKY/WX    TMP DP  RH WIND       PRES   REMARKS
ROCHESTER      MOSUNNY   48  31  51 NE12G23   30.19R
RED WING       PTSUNNY   48  25  40 NE9       30.21R
STANTON        CLOUDY    48  32  53 N8        30.20R
DODGE CENTER   PTSUNNY   46  28  49 NE12G18   30.19R
WINONA         PTSUNNY   46  34  61 E5        30.20S
AUSTIN         PTSUNNY   50  36  57 NE10      30.17R
PRESTON        MOSUNNY   47  34  60 E10G20    30.18R
$$
ABBREVIATIONS USED IN REMARKS
   TC - TEMPERATURES IN CELSIUS
  WCI - WIND CHILL INDEX
   HX - HEAT INDEX
  VSB - VISIBILITY
$$



USA.gov is the U.S. government's official web portal to all federal, state and local government web resources and services.